Content
SEND FEEDBACK

Daily
Averages
Monthly
Summary
United States of America

UMATAC, GUAM


Home > North America > United States > Guam
Elevation: 58 meters     Latitude: 13 17N     Longitude: 144 40E

WEATHER
 
SELECT A DAY
Number of Records: 351,895;   Date Range: 1/1/95 - 10/24/14
 
SHARE

PRINT THIS DATA

[ ← Previous Day ]
WEATHER ALMANAC - 5 SEPTEMBER, 2013
[ Next Day → ]
[ °F ]   °C
Weather ElementAverageHighLow
Temperature27.1 °C30 °C (10:55 am)23 °C (5:59 pm)
Dewpoint24.1 °C26 °C (11:47 am)20 °C (5:59 pm)
Humidity83.6 %94 % (8:28 pm)70 % (8:55 am)
Barometer1010.2 hPa1011.5 hPa (9:17 pm)1008.5 hPa (4:58 pm)
Wind Speed17.5 km/h46.3 km/h (8:18 pm)
Wind Gust53.8 km/h (8:18 pm)
Weather ElementAverage
Visibility15.1 km
Wind DirectionENE (70.7 °)

Weather ElementTotal
Precipitation6.1 mm
Cooling Degree Days8.2 (Base 18.3)
Growing Degree Days16.5 (Base 10)
Averaged from 43 records on 5 September, 2013
WEATHER CONDITIONS BREAKOUT
WIND DIRECTION BREAKOUT
WEATHER BY HOUR - 5 SEPTEMBER, 2013
[ °F ]   °C
Local TimeTemperatureDewpointHumidityBarometerVisibilityWind DirectionWind SpeedGust SpeedPrecipitationEventsConditions
1:58 AM26.5 °C23.8 °C85 %1009.8 hPa16.1 kmENE (60°)13 km/hClear
2:58 AM26.5 °C23.9 °C86 %1009.5 hPa16.1 kmNE (40°)9.3 km/hPartly Cloudy
3:58 AM26.6 °C23.8 °C85 %1009.1 hPa16.1 kmNE (50°)11.1 km/hClear
4:58 AM26.4 °C23.6 °C84 %1009.8 hPa16.1 kmNE (50°)7.4 km/hPartly Cloudy
5:58 AM26.6 °C23.7 °C84 %1009.8 hPa16.1 kmNE (40°)13 km/hScattered Clouds
6:38 AM27 °C24 °C84 %1010.2 hPa16.1 kmNE (40°)14.8 km/hMostly Cloudy
6:55 AM27 °C24 °C84 %1010.2 hPa16.1 kmNE (50°)13 km/hLight Drizzle
6:58 AM27.1 °C24.4 °C85 %1010.2 hPa16.1 kmNE (50°)14.8 km/h0 mmLight Drizzle
7:07 AM27 °C23 °C79 %1010.2 hPa16.1 kmNE (40°)14.8 km/hMostly Cloudy
7:55 AM28 °C25 °C84 %1010.8 hPa16.1 kmENE (70°)13 km/hPartly Cloudy
8:55 AM29 °C23 °C70 %1010.8 hPa16.1 kmEast (90°)16.7 km/hClear
9:55 AM29 °C25 °C79 %1010.8 hPa16.1 kmEast (80°)18.5 km/hPartly Cloudy
10:55 AM30 °C25 °C74 %1010.8 hPa16.1 kmEast (80°)14.8 km/h29.6 km/hScattered Clouds
11:47 AM29 °C26 °C84 %1010.5 hPa16.1 kmEast (90°)18.5 km/hMostly Cloudy
11:51 AM29 °C25 °C79 %1010.5 hPa16.1 kmEast (100°)14.8 km/hMostly Cloudy
11:55 AM29 °C26 °C84 %1010.5 hPa16.1 kmESE (110°)16.7 km/hMostly Cloudy
12:01 PM30 °C25 °C74 %1010.5 hPa16.1 kmEast (90°)13 km/hMostly Cloudy
12:32 PM29 °C25 °C79 %1010.2 hPa16.1 kmEast (80°)18.5 km/hMostly Cloudy
12:42 PM29 °C25 °C79 %1010.2 hPa16.1 kmEast (90°)18.5 km/hMostly Cloudy
12:52 PM29 °C25 °C79 %1009.8 hPa16.1 kmEast (90°)16.7 km/hMostly Cloudy
12:55 PM29 °C25 °C79 %1009.8 hPa16.1 kmEast (90°)18.5 km/hScattered Clouds
1:55 PM30 °C25 °C74 %1009.1 hPa16.1 kmENE (60°)20.4 km/hScattered Clouds
2:58 PM29.9 °C25 °C75 %1008.8 hPa16.1 kmENE (60°)18.5 km/hPartly Cloudy
3:58 PM29.8 °C24.5 °C73 %1008.8 hPa16.1 kmEast (80°)20.4 km/hScattered Clouds
4:58 PM29.1 °C24.3 °C75 %1008.5 hPa16.1 kmENE (70°)20.4 km/hClear
5:59 PM23 °C20 °C83 %1008.8 hPa16.1 kmENE (60°)11.1 km/h0.51 mmScattered Clouds
6:58 PM26.3 °C24.8 °C91 %1009.5 hPa16.1 kmENE (60°)13 km/hClear
7:58 PM27.5 °C24.5 °C84 %1010.5 hPa16.1 kmNE (50°)20.4 km/hThunderstormThunderstorm
8:18 PM27 °C24 °C84 %1010.8 hPa16.1 kmEast (100°)46.3 km/h53.8 km/hMostly Cloudy
8:28 PM25 °C24 °C94 %1010.8 hPa9.7 kmEast (90°)27.8 km/h51.8 km/hMostly Cloudy
8:31 PM25 °C24 °C94 %1010.8 hPa3.2 kmEast (90°)29.6 km/h38.9 km/hRainLight Rain
8:36 PM25 °C24 °C94 %1011.2 hPa3.2 kmEast (90°)27.8 km/h38.9 km/hRainLight Rain
8:42 PM25 °C24 °C94 %1011.2 hPa8 kmEast (90°)18.5 km/hRainLight Rain
8:59 PM24.9 °C23.2 °C90 %1011.2 hPa14.5 kmEast (100°)13 km/h3.3 mmRainLight Rain
9:17 PM25 °C23 °C89 %1011.5 hPa16.1 kmENE (70°)24.1 km/hPartly Cloudy
9:20 PM26 °C24 °C89 %1011.5 hPa16.1 kmENE (70°)29.6 km/hLight Drizzle
9:37 PM25 °C23 °C89 %1011.2 hPa16.1 kmNNE (30°)16.7 km/hPartly Cloudy
9:58 PM25.3 °C23.2 °C88 %1011.2 hPa16.1 kmNE (50°)13 km/h0.76 mmClear
10:19 PM25 °C23 °C89 %1011.2 hPa16.1 kmENE (60°)20.4 km/h35.2 km/hLight Drizzle
10:36 PM25 °C22 °C83 %1010.8 hPa16.1 kmENE (60°)13 km/hScattered Clouds
10:58 PM25.2 °C23.2 °C89 %1010.8 hPa16.1 kmEast (80°)11.1 km/h0.76 mmPartly Cloudy
11:33 PM27 °C24 °C84 %1009.5 hPa16.1 kmENE (60°)16.7 km/hMostly Cloudy
11:58 PM25.2 °C23.2 °C89 %1010.8 hPa16.1 kmEast (80°)11.1 km/h0.76 mmPartly Cloudy
Hourly data recorded from PGUA, located 0 kilometers away from Umatac, Guam







STORIES FROM OUR PARTNERS